Location: *
(45.9500°N, 9.0833°E)
Time: 00:56:39
(UTC+00:00)

SR - Pass Details

Date: 17 June 2021
Orbit: 577 x 878 km, 66.7° (Epoch: 23 July)

Event Time Altitude Azimuth Distance (km) Brightness Sun altitude
Rises 15:35:21 0° 183° (S) 3,435 ? 35.3°
Reaches altitude 10° 15:38:01 10° 175° (S) 2,517 ? 34.9°
Maximum altitude 15:43:16 35° 112° (ESE) 1,388 ? 34.0°
Drops below altitude 10° 15:48:30 10° 48° (NE) 2,513 ? 33.1°
Sets 15:51:09 0° 40° (NE) 3,429 ? 32.6°
